When you browse on this site, cookies collect data to enhance your experience and personalize the content and advertising you see.
Visit our Privacy Policy to learn more. By continuing to use the site, you agree to this use of cookies and data.
  • In Czech Republic
  • List of Countries
  • For 7 days
  • Water Temperature
  • Satellite Maps
  • Weather Map
  • Weather Widgets
  • user-avatar
    Login

    Hourly Weather Chitole

    Today, 16 December, Sunday

    Time Temperature Precipitation Wind Pressure Humidity
    00:00 +24°C° 0.1 mm 2 mps 672 mmHg 74%
    01:00 +24°C° 0 mm 2 mps 672 mmHg 79%
    02:00 +23°C° 0 mm 2 mps 672 mmHg 81%
    03:00 +23°C° 0 mm 2 mps 672 mmHg 82%
    04:00 +23°C° 0 mm 1 mps 672 mmHg 84%
    05:00 +24°C° 0 mm 2 mps 672 mmHg 81%
    06:00 +24°C° 0 mm 2 mps 673 mmHg 78%
    07:00 +25°C° 0 mm 2 mps 673 mmHg 73%
    08:00 +27°C° 0.6 mm 2 mps 673 mmHg 65%
    09:00 +29°C° 0.6 mm 2 mps 673 mmHg 58%
    10:00 +31°C° 0.6 mm 1 mps 673 mmHg 50%
    11:00 +31°C° 1.9 mm 2 mps 673 mmHg 51%
    12:00 +31°C° 1.9 mm 2 mps 672 mmHg 52%
    13:00 +32°C° 0 mm 2 mps 672 mmHg 47%
    14:00 +31°C° 0.7 mm 2 mps 671 mmHg 49%
    15:00 +31°C° 0.7 mm 2 mps 671 mmHg 52%
    16:00 +30°C° 0.7 mm 2 mps 671 mmHg 54%
    17:00 +29°C° 0.9 mm 2 mps 671 mmHg 61%
    18:00 +27°C° 0.9 mm 2 mps 671 mmHg 67%
    19:00 +26°C° 0.9 mm 2 mps 672 mmHg 73%
    20:00 +25°C° 1.4 mm 3 mps 672 mmHg 76%
    21:00 +25°C° 1.4 mm 3 mps 672 mmHg 78%
    22:00 +24°C° 1.4 mm 3 mps 672 mmHg 80%
    23:00 +24°C° 2.1 mm 3 mps 672 mmHg 82%

    Tomorrow, 17 December, Monday

    Time Temperature Precipitation Wind Pressure Humidity
    00:00 +24°C° 2.1 mm 3 mps 672 mmHg 84%
    01:00 +22°C° 2.1 mm 3 mps 672 mmHg 86%
    02:00 +22°C° 2.4 mm 3 mps 672 mmHg 87%
    03:00 +22°C° 2.4 mm 3 mps 672 mmHg 87%
    04:00 +22°C° 2.4 mm 3 mps 671 mmHg 87%
    05:00 +22°C° 1.4 mm 3 mps 672 mmHg 88%
    06:00 +23°C° 1.4 mm 2 mps 672 mmHg 89%
    07:00 +23°C° 1.4 mm 2 mps 673 mmHg 89%
    08:00 +23°C° 0.9 mm 2 mps 673 mmHg 87%
    09:00 +23°C° 0.9 mm 2 mps 673 mmHg 85%
    10:00 +24°C° 0.9 mm 2 mps 673 mmHg 83%
    11:00 +25°C° 0.1 mm 2 mps 673 mmHg 77%
    12:00 +26°C° 0.1 mm 2 mps 672 mmHg 71%
    13:00 +27°C° 0.1 mm 1 mps 672 mmHg 64%
    14:00 +28°C° 0.1 mm 1 mps 672 mmHg 62%
    15:00 +28°C° 0.1 mm 1 mps 671 mmHg 61%
    16:00 +28°C° 0.1 mm 1 mps 671 mmHg 59%
    17:00 +27°C° 0.2 mm 1 mps 671 mmHg 65%
    18:00 +26°C° 0.2 mm 1 mps 671 mmHg 71%
    19:00 +25°C° 0.2 mm 2 mps 671 mmHg 77%
    20:00 +24°C° 0.3 mm 2 mps 671 mmHg 79%
    21:00 +24°C° 0.3 mm 2 mps 672 mmHg 82%
    22:00 +23°C° 0.3 mm 2 mps 672 mmHg 85%
    23:00 +23°C° 0.1 mm 2 mps 672 mmHg 86%

    Day after tomorrow, 18 December, Tuesday

    Time Temperature Precipitation Wind Pressure Humidity
    00:00 +23°C° 0.1 mm 2 mps 671 mmHg 87%
    01:00 +21°C° 0.1 mm 2 mps 671 mmHg 89%
    02:00 +21°C° 0.6 mm 2 mps 671 mmHg 90%
    03:00 +21°C° 0.6 mm 2 mps 671 mmHg 91%
    04:00 +21°C° 0.6 mm 2 mps 670 mmHg 92%
    05:00 +21°C° 1.1 mm 2 mps 671 mmHg 90%
    06:00 +23°C° 1.1 mm 2 mps 672 mmHg 87%
    07:00 +24°C° 1.1 mm 3 mps 672 mmHg 84%
    08:00 +25°C° 1.7 mm 3 mps 672 mmHg 80%
    09:00 +25°C° 1.7 mm 2 mps 672 mmHg 76%
    10:00 +26°C° 1.7 mm 2 mps 672 mmHg 72%
    11:00 +27°C° 1.7 mm 2 mps 671 mmHg 70%
    12:00 +27°C° 1.7 mm 1 mps 671 mmHg 69%
    13:00 +27°C° 1.7 mm 1 mps 670 mmHg 68%
    14:00 +27°C° 0.6 mm 1 mps 670 mmHg 68%
    15:00 +27°C° 0.6 mm 1 mps 669 mmHg 69%
    16:00 +27°C° 0.6 mm 1 mps 669 mmHg 70%
    17:00 +26°C° 0.1 mm 1 mps 669 mmHg 75%
    18:00 +25°C° 0.1 mm 1 mps 670 mmHg 79%
    19:00 +24°C° 0.1 mm 2 mps 670 mmHg 83%
    20:00 +24°C° 0.3 mm 2 mps 670 mmHg 85%
    21:00 +24°C° 0.3 mm 2 mps 671 mmHg 86%
    22:00 +23°C° 0.3 mm 2 mps 671 mmHg 88%
    23:00 +23°C° 0.6 mm 2 mps 671 mmHg 88%

    19 December, Wednesday

    Time Temperature Precipitation Wind Pressure Humidity
    00:00 +23°C° 0.6 mm 2 mps 670 mmHg 88%
    01:00 +23°C° 0.6 mm 2 mps 670 mmHg 88%
    02:00 +23°C° 0.1 mm 2 mps 670 mmHg 88%
    03:00 +23°C° 0.1 mm 2 mps 669 mmHg 88%
    04:00 +21°C° 0.1 mm 2 mps 669 mmHg 88%
    05:00 +23°C° 0 mm 2 mps 670 mmHg 86%
    06:00 +24°C° 0 mm 3 mps 670 mmHg 83%
    07:00 +24°C° 0 mm 3 mps 671 mmHg 81%
    08:00 +26°C° 0 mm 3 mps 671 mmHg 73%
    09:00 +28°C° 0 mm 3 mps 671 mmHg 65%
    10:00 +30°C° 0 mm 3 mps 672 mmHg 58%
    11:00 +31°C° 0 mm 2 mps 671 mmHg 52%
    12:00 +32°C° 0 mm 2 mps 671 mmHg 46%
    13:00 +34°C° 0 mm 2 mps 670 mmHg 41%
    14:00 +34°C° 0 mm 2 mps 670 mmHg 41%
    15:00 +34°C° 0 mm 2 mps 669 mmHg 41%
    16:00 +32°C° 0 mm 2 mps 669 mmHg 41%
    17:00 +30°C° 0.1 mm 2 mps 669 mmHg 49%
    18:00 +28°C° 0.1 mm 3 mps 669 mmHg 57%
    19:00 +26°C° 0.1 mm 3 mps 669 mmHg 65%
    20:00 +26°C° 0.1 mm 3 mps 670 mmHg 68%
    21:00 +25°C° 0.1 mm 3 mps 670 mmHg 71%
    22:00 +24°C° 0.1 mm 3 mps 670 mmHg 74%
    23:00 +22°C° 0.9 mm 3 mps 670 mmHg 79%

    20 December, Thursday

    Time Temperature Precipitation Wind Pressure Humidity
    00:00 +23°C° 0.9 mm 2 mps 669 mmHg 83%
    01:00 +21°C° 0.9 mm 2 mps 669 mmHg 88%
    02:00 +21°C° 0.4 mm 2 mps 669 mmHg 88%
    03:00 +21°C° 0.4 mm 2 mps 669 mmHg 89%
    04:00 +21°C° 0.4 mm 2 mps 669 mmHg 89%
    05:00 +22°C° 0 mm 3 mps 670 mmHg 85%
    06:00 +24°C° 0 mm 3 mps 670 mmHg 81%
    07:00 +25°C° 0 mm 4 mps 671 mmHg 77%
    08:00 +27°C° 0.1 mm 4 mps 671 mmHg 69%
    09:00 +28°C° 0.1 mm 3 mps 671 mmHg 61%
    10:00 +30°C° 0.1 mm 3 mps 672 mmHg 54%
    11:00 +31°C° 0.2 mm 3 mps 671 mmHg 50%
    12:00 +32°C° 0.2 mm 2 mps 671 mmHg 47%
    13:00 +33°C° 0.2 mm 1 mps 670 mmHg 43%
    14:00 +32°C° 0 mm 1 mps 670 mmHg 44%
    15:00 +32°C° 0 mm 2 mps 670 mmHg 46%
    16:00 +31°C° 0 mm 2 mps 669 mmHg 47%
    17:00 +30°C° 0 mm 2 mps 669 mmHg 53%
    18:00 +28°C° 0 mm 2 mps 669 mmHg 59%
    19:00 +26°C° 0 mm 2 mps 669 mmHg 65%
    20:00 +26°C° 0 mm 2 mps 670 mmHg 67%
    21:00 +25°C° 0 mm 2 mps 670 mmHg 69%
    22:00 +25°C° 0 mm 2 mps 670 mmHg 70%
    23:00 +24°C° 0 mm 2 mps 670 mmHg 72%

    21 December, Friday

    Time Temperature Precipitation Wind Pressure Humidity
    00:00 +23°C° 0 mm 2 mps 670 mmHg 74%
    01:00 +23°C° 0 mm 2 mps 669 mmHg 76%
    02:00 +23°C° 0 mm 2 mps 669 mmHg 78%
    03:00 +22°C° 0 mm 1 mps 669 mmHg 81%
    04:00 +22°C° 0 mm 1 mps 670 mmHg 83%
    05:00 +23°C° 0.2 mm 1 mps 670 mmHg 81%
    06:00 +24°C° 0.2 mm 1 mps 671 mmHg 79%
    07:00 +24°C° 0.2 mm 1 mps 671 mmHg 76%
    08:00 +26°C° 0 mm 1 mps 671 mmHg 71%
    09:00 +27°C° 0 mm 1 mps 671 mmHg 65%
    10:00 +28°C° 0 mm 1 mps 671 mmHg 59%
    11:00 +29°C° 0.4 mm 2 mps 670 mmHg 54%
    12:00 +31°C° 0.4 mm 3 mps 670 mmHg 50%
    13:00 +33°C° 0.4 mm 3 mps 669 mmHg 45%
    14:00 +31°C° 0.5 mm 3 mps 669 mmHg 49%
    15:00 +30°C° 0.5 mm 3 mps 669 mmHg 52%
    16:00 +29°C° 0.5 mm 3 mps 668 mmHg 56%
    17:00 +28°C° 0.1 mm 3 mps 668 mmHg 61%
    18:00 +27°C° 0.1 mm 3 mps 669 mmHg 66%
    19:00 +26°C° 0.1 mm 3 mps 669 mmHg 72%
    20:00 +25°C° 0.2 mm 3 mps 669 mmHg 74%
    21:00 +25°C° 0.2 mm 3 mps 670 mmHg 77%
    22:00 +24°C° 0.2 mm 3 mps 670 mmHg 79%
    23:00 +24°C° 0.1 mm 3 mps 670 mmHg 81%
    Show more